Regional Weather Roundup
Issued by NWS

Home | Current Version | Previous Version | Graphics & Text | Print | Product List | Glossary On
Versions: 1 2 3 4 5 6 7 8 9 10 11 12 13 14 15 16 17 18 19 20 21 22 23 24 25 26 27 28 29 30 31 32 33 34 35 36 37 38 39 40 41 42 43 44 45 46 47 48 49 50
000
ASUS43 KFSD 221402
RWRSD

WEATHER ROUNDUP FOR SOUTH DAKOTA
NATIONAL WEATHER SERVICE SIOUX FALLS SD
800 AM CST THU FEB 22 2018

NOTE: "FAIR" INDICATES FEW OR NO CLOUDS BELOW 12,000 FEET WITH NO
SIGNIFICANT WEATHER AND/OR OBSTRUCTIONS TO VISIBILITY.


SDZ001>005-009-010-012>017-221500-
NORTHWEST AND NORTH CENTRAL SOUTH DAKOTA

CITY           SKY/WX    TMP DP  RH WIND       PRES   REMARKS
BUFFALO          N/A     -3 -10  72 S3        30.06R
FAITH            N/A    -10 -16  74 CALM      30.19R
MOBRIDGE       FAIR      -9 -13  83 CALM      30.27R
$$

SDZ012>016-024>037-041>051-057-063-072>074-221500-
SOUTHWEST AND SOUTH CENTRAL SOUTH DAKOTA

CITY           SKY/WX    TMP DP  RH WIND       PRES   REMARKS
RAPID CTY ARPT FAIR       1  -3  83 CALM      30.12R
PIERRE         FAIR       5   2  87 SE12      30.30R WCI -11
CUSTER         FAIR       3  -1  83 N5        29.99S WCI  -6
ELLSWORTH AFB  FAIR      -5  -9  85 E3        30.11R
PHILIP         CLOUDY    -6  -9  86 W3        30.24R
PINE RIDGE     FAIR      15   9  76 SW6       30.13F WCI   6
SPEARFISH        N/A     10   1  67 S9        30.08S WCI  -2
WINNER         FAIR      18  13  80 S7        30.30R WCI   9
$$

SDZ004>011-016>023-039-040-221500-
NORTHEAST SOUTH DAKOTA

CITY           SKY/WX    TMP DP  RH WIND       PRES   REMARKS
ABERDEEN       FAIR       0  -3  87 CALM      30.40R
WATERTOWN      CLOUDY    13  10  88 SE10      30.40R WCI   0
BROOKINGS      CLOUDY    15  11  83 SE12      30.43S WCI   2
SISSETON         N/A      3  -1  83 SE5       30.45R WCI  -6
$$

SDZ017-020-022-023-036>040-048>070-221500-
SOUTHEAST SOUTH DAKOTA

CITY           SKY/WX    TMP DP  RH WIND       PRES   REMARKS
SIOUX FALLS    CLOUDY    18  14  84 E8        30.44S WCI   8
HURON          CLOUDY    17  11  77 SE13      30.41R WCI   4
CHAMBERLAIN    CLOUDY    18  15  87 E10       30.34S WCI   7
MITCHELL       CLOUDY    18  13  80 SE9       30.43R WCI   7
YANKTON        FAIR      18  15  88 E8        30.42S WCI   8
$$

ABBREVIATIONS USED IN REMARKS
   TC - TEMPERATURE IN CELSIUS
  WCI - WIND CHILL INDEX
   HX - HEAT INDEX
  VSB - VISIBILITY





USA.gov is the U.S. government's official web portal to all federal, state and local government web resources and services.